Location: Copper Breaks State Park
(34.1132°N, 99.7492°W)
Time: 03:56:05
(UTC-06:00)

Amateur Radio Satellites - All Passes

Search period start: 11 December 2016 03:26
Search period end: 12 December 2016 03:26
Location: Copper Breaks State Park, 34.1132°N, 99.7492°W

Satellite Date Start Highest point End Downlink Frequencies (MHz)
Time Altitude Azimuth
Oscar 19 11 Dec 03:27:10 03:30:23 17° 295° (WNW) 03:33:38 437.125/150
KKS-1 11 Dec 03:28:10 03:31:56 27° 70° (ENE) 03:35:44 437.445
AO-7 11 Dec 03:28:55 03:36:24 35° 99° (E) 03:43:49 29.400- 29.500
MOZHAYETS 4 11 Dec 03:38:03 03:42:37 87° 256° (WSW) 03:47:13
PHONESAT 2.4 11 Dec 03:40:33 03:43:07 51° 208° (SSW) 03:45:39 2401.200-2431.200
ITUPSAT 1 11 Dec 03:56:08 03:58:26 13° 267° (W) 04:00:43 437.325
CUBESAT XI-V 11 Dec 03:57:30 04:00:41 19° 68° (ENE) 04:03:52 437.345
BEESAT 2 11 Dec 03:58:50 04:02:28 38° 114° (ESE) 04:06:09 435.950
ITAMSAT 1 11 Dec 04:06:17 04:11:25 65° 286° (WNW) 04:16:30 435.822/435.867
Gurwin Techsat 1B 11 Dec 04:08:52 04:11:32 14° 296° (WNW) 04:14:13 435.225
BRITE-PL 11 Dec 04:44:59 04:49:04 20° 93° (E) 04:53:10 437.365/2234.400
STARS 11 Dec 04:53:51 04:58:15 67° 258° (WSW) 05:02:41 437.465
BEESAT 3 11 Dec 04:56:00 04:58:48 19° 308° (NW) 05:01:37 437.485
YUBILEINY 11 Dec 05:00:16 05:06:56 23° 70° (ENE) 05:13:32 435.215
KKS-1 11 Dec 05:04:56 05:08:25 22° 264° (W) 05:11:55 437.445
SO-50 11 Dec 05:05:01 05:09:14 41° 246° (WSW) 05:13:23 436.795
AO-7 11 Dec 05:21:20 05:29:10 46° 295° (WNW) 05:36:59 29.400- 29.500
Cosmos 2491 11 Dec 05:27:44 05:33:18 19° 81° (E) 05:38:50 435.465 / 435.565
GOMX 1 11 Dec 05:29:46 05:34:01 23° 94° (E) 05:38:09 467.674
CUBESAT XI-V 11 Dec 05:33:36 05:37:46 34° 262° (W) 05:41:58 437.345
BEESAT 2 11 Dec 05:38:00 05:40:24 15° 309° (NW) 05:42:49 435.950
RS-15 11 Dec 06:07:10 06:18:00 48° 108° (ESE) 06:29:20 29.354- 29.394
HORYU 2 11 Dec 06:12:23 06:16:48 77° 285° (WNW) 06:21:11 437.375
CUTE-I 11 Dec 06:21:42 06:26:30 34° 98° (E) 06:31:16 437.470
BRITE-PL 11 Dec 06:22:16 06:27:38 48° 287° (WNW) 06:33:04 437.365/2234.400
Cosmos 2504 11 Dec 06:22:18 06:30:12 38° 75° (ENE) 06:37:34 435.465 / 435.565
NOAA 15 11 Dec 06:25:28 06:30:28 41° 99° (E) 06:35:26 137.62
STRAND 1 11 Dec 06:36:55 06:41:29 34° 70° (ENE) 06:46:04 437.568
DOVE 4 11 Dec 06:48:02 06:53:10 56° 99° (E) 06:58:01 437.250
Cubesat XI-IV 11 Dec 06:49:12 06:54:30 64° 101° (E) 06:59:45 437.490
YUBILEINY 11 Dec 06:55:36 07:04:19 66° 268° (W) 07:13:01 435.215
AIST 1 11 Dec 06:56:25 07:00:50 86° 84° (E) 07:05:13
GOMX 1 11 Dec 07:07:02 07:12:07 40° 288° (WNW) 07:17:06 467.674
LilacSat-2 11 Dec 07:13:15 07:16:50 43° 285° (WNW) 07:20:24 437.200
AIST 2 11 Dec 07:16:24 07:20:25 57° 301° (WNW) 07:24:30 435.215
NOAA 18 11 Dec 07:19:15 07:24:48 75° 103° (ESE) 07:30:16 137.9125
Cosmos 2491 11 Dec 07:20:20 07:29:06 75° 277° (W) 07:37:52 435.465 / 435.565
HO-68 11 Dec 07:23:58 07:29:42 25° 96° (E) 07:35:23 435.675
CINEMA 3 11 Dec 07:24:53 07:28:56 29° 96° (E) 07:32:46 145.822/145.860
CUTE 1.7 + AOD 2 11 Dec 07:29:34 07:32:27 18° 94° (E) 07:35:20 437.475
CANX-2 11 Dec 07:47:58 07:51:52 35° 98° (E) 07:55:45 2200.000
COMPASS 1 11 Dec 08:01:06 08:03:58 18° 95° (E) 08:06:49 437.405
SEEDS 11 Dec 08:01:17 08:04:55 28° 97° (E) 08:08:33 437.485
CUTE-I 11 Dec 08:02:04 08:06:20 25° 292° (WNW) 08:10:35 437.470
NOAA 15 11 Dec 08:06:02 08:09:54 21° 293° (WNW) 08:13:47 137.62
JUGNU 11 Dec 08:13:12 08:15:15 12° 165° (SSE) 08:17:19 437.505
Cosmos 2504 11 Dec 08:15:44 08:23:26 39° 274° (W) 08:30:41 435.465 / 435.565
STRAND 1 11 Dec 08:16:37 08:20:39 23° 264° (W) 08:24:42 437.568
RS-15 11 Dec 08:19:11 08:30:24 48° 309° (NW) 08:42:11 29.354- 29.394
DOVE 4 11 Dec 08:27:21 08:30:14 15° 295° (WNW) 08:33:04 437.250
Cubesat XI-IV 11 Dec 08:31:18 08:33:58 14° 296° (WNW) 08:36:36 437.490
Oscar 11 11 Dec 08:31:21 08:32:17 11° 92° (E) 08:33:13 145.826/435.025
CUBEBUG 2 11 Dec 08:39:51 08:43:58 46° 99° (E) 08:47:59 437.445
AAUSAT CUBESAT 2 11 Dec 08:59:05 09:03:14 73° 101° (E) 09:07:23 437.432
PRISM 11 Dec 08:59:49 09:03:50 68° 76° (ENE) 09:07:55 437.425
CINEMA 3 11 Dec 09:02:20 09:05:50 21° 292° (WNW) 09:09:12 145.822/145.860
NOAA 18 11 Dec 09:02:24 09:04:44 13° 298° (WNW) 09:07:03 137.9125
CUTE 1.7 + AOD 2 11 Dec 09:04:36 09:08:17 30° 288° (WNW) 09:11:58 437.475
UWE-3 11 Dec 09:09:43 09:13:55 67° 101° (E) 09:18:01 435.000/436.395/437.385
AO-85 11 Dec 09:09:56 09:11:27 12° 48° (NE) 09:12:57 145.980
HO-68 11 Dec 09:10:41 09:17:37 52° 291° (WNW) 09:24:32 435.675
Cosmos 2491 11 Dec 09:24:45 09:27:25 11° 296° (WNW) 09:30:05 435.465 / 435.565
CANX-2 11 Dec 09:24:53 09:27:24 16° 291° (WNW) 09:29:55 2200.000
COMPASS 1 11 Dec 09:35:52 09:39:29 29° 288° (WNW) 09:43:05 437.405
ZACube-1 11 Dec 09:37:19 09:41:30 85° 102° (ESE) 09:45:38 437.345
SEEDS 11 Dec 09:37:25 09:40:23 19° 290° (WNW) 09:43:22 437.485
FUNcube-1 11 Dec 09:41:32 09:45:43 87° 108° (ESE) 09:49:49 145.935
UNISAT 6 11 Dec 09:44:09 09:48:37 45° 74° (ENE) 09:53:02 437.425
CUSAT 1 11 Dec 09:45:13 09:47:38 23° 280° (W) 09:49:49 437.405
DANDE 11 Dec 09:45:48 09:50:00 46° 98° (E) 09:53:14 436.750
PCSat 11 Dec 09:48:15 09:52:57 31° 108° (ESE) 09:57:40 145.827
JUGNU 11 Dec 09:59:29 10:03:34 19° 174° (S) 10:07:38 437.505
Oscar 11 11 Dec 10:04:28 10:08:39 51° 285° (WNW) 10:12:49 145.826/435.025
TIGRISAT 11 Dec 10:11:58 10:16:40 89° 77° (ENE) 10:21:19 435.000
HUMSAT D 11 Dec 10:13:00 10:16:35 30° 97° (E) 10:20:11 437.325/437.525
ANTELSAT 11 Dec 10:15:03 10:19:44 80° 257° (WSW) 10:24:23 437.575/2403.000
CUBEBUG 2 11 Dec 10:18:28 10:20:05 12° 294° (WNW) 10:21:43 437.445
RS-15 11 Dec 10:40:19 10:47:11 16° 339° (NNW) 10:54:10 29.354- 29.394
DELFI C3 11 Dec 10:40:50 10:44:43 52° 285° (WNW) 10:48:36 145.870
NANOSAT C BR1 11 Dec 10:41:56 10:44:44 17° 68° (ENE) 10:47:32 145.865
AO-85 11 Dec 10:48:21 10:52:08 49° 245° (WSW) 10:55:53 145.980
QB50P2 11 Dec 10:52:49 10:56:25 27° 71° (ENE) 11:00:02 145.880/145.840
POLYITAN 1 11 Dec 10:53:14 10:56:48 26° 71° (ENE) 11:00:20 437.675
Cosmos 2499 11 Dec 10:57:10 11:04:29 33° 74° (ENE) 11:11:18 435.465 / 435.565
DUCHIFAT 1 11 Dec 11:00:08 11:03:39 26° 71° (ENE) 11:07:10 145.980
QB50P1 11 Dec 11:03:55 11:07:46 34° 72° (ENE) 11:11:38 145.935-145.965
JAS-2 11 Dec 11:12:19 11:18:42 77° 75° (ENE) 11:24:21 435.910
CUBEBUG 1 11 Dec 11:19:55 11:21:58 13° 93° (E) 11:24:02 437.445
UNISAT 6 11 Dec 11:22:58 11:25:27 14° 267° (W) 11:27:58 437.425
POPSAT HIP 1 11 Dec 11:25:38 11:29:51 62° 76° (ENE) 11:34:06 437.405
ESTCUBE 1 11 Dec 11:27:17 11:31:12 28° 97° (E) 11:35:07 437.505/2401.250
PCSat 11 Dec 11:31:32 11:36:15 30° 304° (WNW) 11:41:00 145.827
BUGSAT 1 11 Dec 11:32:39 11:35:56 22° 70° (ENE) 11:39:15 437.445
GONETS M04 11 Dec 11:33:57 11:42:28 54° 80° (E) 11:50:58
VELOX 1 11 Dec 11:45:38 11:48:33 17° 95° (E) 11:51:26 145.980
JUGNU 11 Dec 11:47:45 11:51:55 19° 185° (S) 11:56:05 437.505
HUMSAT D 11 Dec 11:49:19 11:51:55 17° 291° (WNW) 11:54:33 437.325/437.525
SRMSAT 11 Dec 11:50:04 11:53:46 17° 171° (S) 11:57:28 437.500
NANOSAT C BR1 11 Dec 12:16:20 12:20:10 32° 262° (W) 12:24:00 145.865
QB50P2 11 Dec 12:28:57 12:32:09 20° 265° (W) 12:35:22 145.880/145.840
POLYITAN 1 11 Dec 12:29:10 12:32:29 22° 264° (W) 12:35:49 437.675
DUCHIFAT 1 11 Dec 12:36:00 12:39:14 21° 264° (W) 12:42:31 145.980
QB50P1 11 Dec 12:40:54 12:43:34 16° 266° (W) 12:46:16 145.935-145.965
AISAT 11 Dec 12:44:10 12:48:39 89° 294° (WNW) 12:53:06 437.250
Cosmos 2499 11 Dec 12:49:59 12:57:40 43° 272° (W) 13:04:47 435.465 / 435.565
CUBEBUG 1 11 Dec 12:54:12 12:58:26 45° 286° (WNW) 13:02:38 437.445
ISS 11 Dec 12:58:31 12:59:51 12° 126° (SE) 13:01:11 145.825
Oscar 19 11 Dec 12:59:35 13:04:31 50° 73° (ENE) 13:09:29 437.125/150
RS-15 11 Dec 13:01:07 13:07:30 15° 18° (NNE) 13:13:51 29.354- 29.394
JAS-2 11 Dec 13:01:55 13:04:01 12° 266° (W) 13:06:03 435.910
50 SAT 11 Dec 13:03:16 13:06:45 53° 285° (WNW) 13:10:14 437.505
ESTCUBE 1 11 Dec 13:04:20 13:07:49 22° 291° (WNW) 13:11:16 437.505/2401.250
BUGSAT 1 11 Dec 13:07:40 13:11:08 25° 264° (W) 13:14:38 437.445
SPROUT 11 Dec 13:08:26 13:12:42 73° 285° (WNW) 13:16:56 437.525
UKube-1 11 Dec 13:08:37 13:12:55 59° 101° (E) 13:17:10 .
DX 1 11 Dec 13:13:33 13:17:58 86° 281° (WNW) 13:22:20 434.975-435.025
BEESAT 3 11 Dec 13:14:54 13:18:53 76° 61° (ENE) 13:22:51 437.485
VELOX 1 11 Dec 13:20:59 13:25:03 35° 288° (WNW) 13:29:05 145.980
GONETS M04 11 Dec 13:31:45 13:38:41 28° 276° (W) 13:45:40
JUGNU 11 Dec 13:37:38 13:40:14 13° 194° (SSW) 13:42:49 437.505
SRMSAT 11 Dec 13:38:02 13:42:16 20° 181° (S) 13:46:29 437.500
ITAMSAT 1 11 Dec 13:44:01 13:46:38 14° 64° (ENE) 13:49:15 435.822/435.867
Gurwin Techsat 1B 11 Dec 13:44:08 13:49:25 70° 75° (ENE) 13:54:43 435.225
BEESAT 2 11 Dec 13:57:13 14:01:16 81° 243° (WSW) 14:05:16 435.950
TISAT 1 11 Dec 14:08:26 14:12:39 79° 103° (ESE) 14:16:49 437.305
ITUPSAT 1 11 Dec 14:21:02 14:24:11 17° 94° (E) 14:27:19 437.325
AO-7 11 Dec 14:24:03 14:31:20 36° 63° (ENE) 14:38:39 29.400- 29.500
M-CUBED/EXP-1 PRIME 11 Dec 14:24:41 14:27:04 14° 96° (E) 14:29:22 437.505
ISS 11 Dec 14:32:49 14:35:59 47° 320° (NW) 14:39:12 145.825
Oscar 19 11 Dec 14:41:05 14:44:03 15° 267° (W) 14:47:03 437.125/150
UKube-1 11 Dec 14:47:36 14:48:23 10° 295° (WNW) 14:49:09 .
RS-15 11 Dec 15:13:15 15:24:49 43° 49° (NE) 15:35:58 29.354- 29.394
ITAMSAT 1 11 Dec 15:20:23 15:25:32 62° 258° (WSW) 15:30:42 435.822/435.867
SWISSCUBE 11 Dec 15:22:09 15:26:55 83° 282° (WNW) 15:31:39 437.505
O/OREOS (USA 219) 11 Dec 15:22:33 15:27:06 74° 289° (WNW) 15:31:39 437.305
BEESAT 11 Dec 15:25:31 15:30:17 86° 286° (WNW) 15:35:02 436.000
SRMSAT 11 Dec 15:27:22 15:30:45 16° 191° (S) 15:34:07 437.500
Gurwin Techsat 1B 11 Dec 15:28:08 15:29:47 11° 269° (W) 15:31:26 435.225
MOZHAYETS 4 11 Dec 15:37:09 15:41:05 28° 97° (E) 15:45:00
AUBIESAT-1 11 Dec 15:39:35 15:44:05 90° 154° (SSE) 15:48:16 437.475
AIST 2 11 Dec 15:41:19 15:45:00 28° 55° (NE) 15:48:41 435.215
BRITE-PL 11 Dec 15:54:27 15:56:02 12° 64° (ENE) 15:57:38 437.365/2234.400
M-CUBED/EXP-1 PRIME 11 Dec 15:57:24 16:01:44 44° 292° (WNW) 16:05:50 437.505
ITUPSAT 1 11 Dec 15:57:42 16:02:07 39° 288° (WNW) 16:06:30 437.325
AO-7 11 Dec 16:15:59 16:23:49 46° 259° (W) 16:31:44 29.400- 29.500
GOMX 1 11 Dec 16:35:19 16:37:53 14° 64° (ENE) 16:40:31 467.674
STARS 11 Dec 16:47:18 16:51:07 28° 97° (E) 16:54:54 437.465
KKS-1 11 Dec 16:58:19 17:02:49 88° 280° (W) 17:07:16 437.445
NOAA 18 11 Dec 17:05:39 17:07:23 11° 61° (ENE) 17:09:08 137.9125
HORYU 2 11 Dec 17:06:16 17:10:41 60° 74° (ENE) 17:15:05 437.375
MOZHAYETS 4 11 Dec 17:14:32 17:18:03 22° 290° (WNW) 17:21:34
AIST 2 11 Dec 17:20:04 17:23:18 21° 250° (WSW) 17:26:30 435.215
RS-15 11 Dec 17:25:49 17:37:38 56° 250° (WSW) 17:48:59 29.354- 29.394
BRITE-PL 11 Dec 17:29:35 17:33:51 55° 261° (W) 17:38:28 437.365/2234.400
CUBESAT XI-V 11 Dec 17:33:08 17:37:50 76° 101° (ESE) 17:42:32 437.345
Cosmos 2491 11 Dec 17:35:36 17:43:55 47° 78° (ENE) 17:52:11 435.465 / 435.565
SO-50 11 Dec 17:37:18 17:39:36 13° 108° (ESE) 17:41:54 436.795
CUTE-I 11 Dec 17:39:44 17:44:41 39° 71° (ENE) 17:49:38 437.470
NOAA 15 11 Dec 17:41:51 17:46:48 45° 72° (ENE) 17:51:48 137.62
DOVE 4 11 Dec 17:49:13 17:53:40 36° 72° (ENE) 17:58:22 437.250
LilacSat-2 11 Dec 17:51:01 17:54:42 47° 75° (ENE) 17:58:23 437.200
HO-68 11 Dec 17:51:54 17:54:50 13° 56° (ENE) 17:57:46 435.675
YUBILEINY 11 Dec 17:56:38 18:03:47 30° 84° (E) 18:10:57 435.215
Cubesat XI-IV 11 Dec 18:07:18 18:12:39 73° 75° (ENE) 18:18:01 437.490
GOMX 1 11 Dec 18:10:50 18:15:21 52° 261° (W) 18:20:15 467.674
CINEMA 3 11 Dec 18:22:39 18:26:15 20° 68° (ENE) 18:29:54 145.822/145.860
STARS 11 Dec 18:23:58 18:27:15 21° 291° (WNW) 18:30:31 437.465
CANX-2 11 Dec 18:38:09 18:40:45 16° 69° (ENE) 18:43:22 2200.000
PCSat 11 Dec 18:41:04 18:43:36 13° 48° (NE) 18:46:07 145.827
NOAA 18 11 Dec 18:41:42 18:47:15 84° 258° (WSW) 18:52:50 137.9125
SEEDS 11 Dec 18:51:03 18:52:51 13° 67° (ENE) 18:54:37 437.485
STRAND 1 11 Dec 18:52:19 18:55:14 15° 93° (E) 18:58:09 437.568
Cosmos 2504 11 Dec 18:55:06 19:02:30 36° 86° (E) 19:10:13 435.465 / 435.565
SO-50 11 Dec 19:14:54 19:19:36 56° 302° (WNW) 19:24:14 436.795
CUTE-I 11 Dec 19:20:44 19:24:47 22° 265° (W) 19:28:51 437.470
AIST 1 11 Dec 19:21:27 19:25:42 60° 93° (E) 19:29:59
NOAA 15 11 Dec 19:23:17 19:26:45 18° 266° (W) 19:30:14 137.62
DOVE 4 11 Dec 19:27:47 19:31:25 21° 267° (W) 19:35:14 437.250
Cosmos 2491 11 Dec 19:32:58 19:40:21 32° 275° (W) 19:47:45 435.465 / 435.565
CUBEBUG 2 11 Dec 19:33:55 19:37:54 27° 71° (ENE) 19:41:50 437.445
HO-68 11 Dec 19:34:16 19:41:25 81° 73° (ENE) 19:48:37 435.675
AAUSAT CUBESAT 2 11 Dec 19:45:47 19:49:17 28° 72° (ENE) 19:52:47 437.432
YUBILEINY 11 Dec 19:51:42 20:00:04 51° 281° (WNW) 20:08:32 435.215
Cubesat XI-IV 11 Dec 19:51:45 19:53:10 11° 269° (W) 19:54:34 437.490
CUTE 1.7 + AOD 2 11 Dec 19:52:39 19:56:50 71° 259° (W) 20:01:02 437.475
CINEMA 3 11 Dec 19:58:25 20:03:02 39° 263° (W) 20:07:44 145.822/145.860
UWE-3 11 Dec 20:02:31 20:06:43 35° 73° (ENE) 20:10:52 435.000/436.395/437.385
CANX-2 11 Dec 20:12:31 20:16:19 33° 262° (W) 20:20:08 2200.000
CUSAT 1 11 Dec 20:16:51 20:21:23 86° 79° (E) 20:27:25 437.405
COMPASS 1 11 Dec 20:21:57 20:26:03 74° 259° (W) 20:30:11 437.405
PCSat 11 Dec 20:22:12 20:27:38 83° 246° (WSW) 20:33:02 145.827
SEEDS 11 Dec 20:24:09 20:28:06 43° 261° (W) 20:32:05 437.485
DANDE 11 Dec 20:25:28 20:28:05 19° 81° (E) 20:31:12 436.750
ZACube-1 11 Dec 20:28:54 20:33:09 41° 74° (ENE) 20:37:20 437.345
STRAND 1 11 Dec 20:29:43 20:34:38 50° 287° (WNW) 20:39:31 437.568
FUNcube-1 11 Dec 20:32:49 20:37:03 41° 74° (ENE) 20:41:13 145.935
PRISM 11 Dec 20:46:44 20:48:32 12° 93° (E) 20:50:19 437.425
Cosmos 2504 11 Dec 20:47:40 20:55:35 44° 283° (WNW) 21:03:57 435.465 / 435.565
Oscar 11 11 Dec 20:54:57 20:59:14 73° 76° (ENE) 21:03:33 145.826/435.025
HUMSAT D 11 Dec 21:01:53 21:04:02 14° 68° (ENE) 21:06:09 437.325/437.525
ISS 11 Dec 21:03:44 21:06:44 31° 37° (NE) 21:09:43 145.825
CUBEBUG 2 11 Dec 21:10:30 21:14:23 25° 264° (W) 21:18:15 437.445
AAUSAT CUBESAT 2 11 Dec 21:21:55 21:24:43 18° 266° (W) 21:27:32 437.432
DELFI C3 11 Dec 21:22:25 21:26:12 48° 75° (ENE) 21:29:59 145.870
HO-68 11 Dec 21:26:02 21:29:45 15° 268° (W) 21:33:30 435.675
PHONESAT 2.4 11 Dec 21:28:59 21:31:35 53° 152° (SSE) 21:34:11 2401.200-2431.200
UWE-3 11 Dec 21:39:59 21:43:11 18° 266° (W) 21:46:23 435.000/436.395/437.385
UNISAT 6 11 Dec 21:42:00 21:43:26 11° 92° (E) 21:44:52 437.425
ZACube-1 11 Dec 22:06:59 22:09:32 15° 266° (W) 22:12:04 437.345
DANDE 11 Dec 22:08:05 22:10:36 18° 264° (W) 22:13:35 436.750
TIGRISAT 11 Dec 22:08:09 22:11:34 23° 96° (E) 22:14:56 435.000
FUNcube-1 11 Dec 22:10:55 22:13:23 14° 267° (W) 22:15:50 145.935
ANTELSAT 11 Dec 22:11:10 22:14:49 26° 96° (E) 22:18:25 437.575/2403.000
PRISM 11 Dec 22:20:01 22:23:58 41° 286° (WNW) 22:27:53 437.425
ESTCUBE 1 11 Dec 22:24:02 22:26:57 17° 68° (ENE) 22:29:52 437.505/2401.250
HUMSAT D 11 Dec 22:35:21 22:39:16 39° 261° (W) 22:43:10 437.325/437.525
ISS 11 Dec 22:40:38 22:43:04 19° 231° (SW) 22:45:29 145.825
PHONESAT 2.4 11 Dec 23:04:28 23:06:49 27° 347° (NNW) 23:09:09 2401.200-2431.200
POPSAT HIP 1 11 Dec 23:15:55 23:17:54 13° 93° (E) 23:19:51 437.405
UNISAT 6 11 Dec 23:16:14 23:20:23 46° 286° (WNW) 23:24:27 437.425
AO-85 11 Dec 23:21:22 23:22:56 11° 108° (ESE) 23:24:29 145.980
Cosmos 2499 11 Dec 23:28:05 23:35:18 31° 84° (E) 23:42:42 435.465 / 435.565
50 SAT 11 Dec 23:34:53 23:37:56 29° 73° (ENE) 23:41:00 437.505
AISAT 11 Dec 23:37:29 23:41:45 49° 74° (ENE) 23:46:03 437.250
TIGRISAT 11 Dec 23:44:43 23:48:09 24° 290° (WNW) 23:51:32 435.000
CUBEBUG 1 11 Dec 23:45:46 23:50:08 89° 283° (WNW) 23:54:33 437.445
ANTELSAT 11 Dec 23:48:08 23:51:20 21° 291° (WNW) 23:54:30 437.575/2403.000
SPROUT 11 Dec 23:57:46 00:01:55 50° 75° (ENE) 00:06:06 437.525
ESTCUBE 1 11 Dec 23:59:20 00:03:26 36° 262° (W) 00:07:34 437.505/2401.250
UKube-1 11 Dec 23:59:34 00:03:19 30° 71° (ENE) 00:07:06 .
NANOSAT C BR1 12 Dec 00:03:54 00:08:00 49° 100° (E) 00:12:03 145.865
DX 1 12 Dec 00:05:08 00:09:18 49° 74° (ENE) 00:13:31 434.975-435.025
JAS-2 12 Dec 00:09:31 00:14:51 88° 283° (WNW) 00:20:42 435.910
VELOX 1 12 Dec 00:13:48 00:18:10 65° 259° (WSW) 00:22:36 145.980
QB50P2 12 Dec 00:16:14 00:20:28 85° 102° (ESE) 00:24:40 145.880/145.840
POLYITAN 1 12 Dec 00:16:35 00:20:48 80° 102° (ESE) 00:24:59 437.675
DUCHIFAT 1 12 Dec 00:22:31 00:26:43 79° 102° (ESE) 00:30:52 145.980
QB50P1 12 Dec 00:27:25 00:31:38 75° 284° (WNW) 00:35:48 145.935-145.965
GONETS M04 12 Dec 00:29:49 00:38:27 71° 93° (E) 00:47:05
PHONESAT 2.4 12 Dec 00:40:20 00:42:24 20° 3° (N) 00:44:26 2401.200-2431.200
POPSAT HIP 1 12 Dec 00:49:52 00:53:49 40° 287° (WNW) 00:57:44 437.405
BUGSAT 1 12 Dec 00:52:19 00:56:26 61° 101° (E) 01:00:27 437.445
TISAT 1 12 Dec 00:56:13 01:00:04 34° 72° (ENE) 01:03:55 437.305
AO-85 12 Dec 00:57:57 01:02:56 68° 299° (WNW) 01:07:34 145.980
M-CUBED/EXP-1 PRIME 12 Dec 01:08:27 01:09:25 11° 59° (ENE) 01:10:23 437.505
50 SAT 12 Dec 01:09:56 01:11:16 12° 266° (W) 01:12:35 437.505
Oscar 19 12 Dec 01:15:26 01:19:36 24° 96° (E) 01:23:46 437.125/150
AISAT 12 Dec 01:16:45 01:18:26 12° 267° (W) 01:20:07 437.250
Cosmos 2499 12 Dec 01:19:37 01:27:55 51° 281° (WNW) 01:36:33 435.465 / 435.565
ITUPSAT 1 12 Dec 01:25:05 01:27:35 14° 65° (ENE) 01:30:04 437.325
UKube-1 12 Dec 01:36:19 01:39:21 19° 265° (W) 01:42:24 .
O/OREOS (USA 219) 12 Dec 01:36:20 01:40:48 72° 252° (WSW) 01:45:14 437.305
SPROUT 12 Dec 01:36:57 01:38:05 11° 268° (W) 01:39:12 437.525
NANOSAT C BR1 12 Dec 01:41:54 01:43:14 11° 294° (WNW) 01:44:33 145.865
DX 1 12 Dec 01:44:15 01:45:43 11° 267° (W) 01:47:12 434.975-435.025
Gurwin Techsat 1B 12 Dec 02:04:26 02:09:21 37° 98° (E) 02:14:13 435.225
PHONESAT 2.4 12 Dec 02:15:19 02:17:52 45° 19° (NNE) 02:20:24 2401.200-2431.200
AUBIESAT-1 12 Dec 02:20:55 02:25:05 58° 70° (ENE) 02:29:30 437.475
SWISSCUBE 12 Dec 02:24:35 02:29:20 74° 76° (ENE) 02:34:05 437.505
BEESAT 12 Dec 02:27:53 02:32:38 71° 76° (ENE) 02:37:23 436.000
GONETS M04 12 Dec 02:29:48 02:35:57 21° 290° (WNW) 02:42:08
TISAT 1 12 Dec 02:33:10 02:35:45 16° 266° (W) 02:38:21 437.305
AO-7 12 Dec 02:33:18 02:35:46 11° 91° (E) 02:38:13 29.400- 29.500
MOZHAYETS 4 12 Dec 02:36:06 02:39:12 18° 68° (ENE) 02:42:19
M-CUBED/EXP-1 PRIME 12 Dec 02:39:00 02:43:09 67° 254° (WSW) 02:47:39 437.505
Oscar 19 12 Dec 02:54:16 02:58:54 34° 290° (WNW) 03:03:32 437.125/150
ITUPSAT 1 12 Dec 03:00:17 03:04:55 51° 259° (W) 03:09:35 437.325
BEESAT 3 12 Dec 03:01:45 03:05:09 30° 112° (ESE) 03:08:35 437.485
